User: anonymous   Login
Location: Gro�wechsungen
(51.4926°N, 10.6901°E)
Time: 04:42:01
(UTC+00:00)
Language:

Cosmos 2082 Rocket - Orbit

View from above orbital plane
View from above orbital plane
View from above satellite
View from above satellite

Ground track
Ground track

The orbit data is extracted from the following two-line orbital elements,

1 20625U 90046B   20337.36980108  .00000278  00000-0  16904-3 0  9994
2 20625  70.9997  15.7487 0014879 338.6163  21.4336 14.14659216576364
Epoch (UTC): 02 December 2020 08:52:30
Eccentricity: 0.0014879
inclination: 70.9997°
perigee height: 833 km
apogee height: 854 km
right ascension of ascending node: 15.7487°
argument of perigee: 338.6163°
revolutions per day: 14.14659216
mean anomaly at epoch: 21.4336°
orbit number at epoch: 57636

The dashed part of the orbit path shows where the satellite is in the earth's shadow,  

DLR